Simultaneous Nadir Overpasses (SNOs) Predictions

Prediction of SNOs between GOES-16 and NOAA-20 Satellite Orbit:

Table of predicted SNOs for the next 14.0 days since TLE Epoch: 12/13/2019
Index Date Time (GOES-16) GOES-16 Lat,Lon NOAA-20 Lat,Lon Distance(km) Time Diff (sec)
1 12/14/2019 18:26:14 -0.01, -75.20 -0.14, -75.68 55.99 80
2 12/15/2019 18:10:09 0.00, -75.20 0.88, -71.15 460.68 80
3 12/17/2019 06:31:57 -0.01, -75.20 0.25, -76.43 139.59 80
4 12/18/2019 06:10:33 -0.02, -75.20 -0.78, -71.90 377.33 80
5 12/19/2019 18:35:08 0.01, -75.22 -0.46, -77.19 225.29 80
6 12/20/2019 18:13:44 0.02, -75.23 0.57, -72.66 292.29 80
7 12/22/2019 06:38:11 -0.01, -75.24 0.61, -77.92 306.26 80
8 12/23/2019 06:16:47 -0.01, -75.25 -0.42, -73.40 211.51 80
9 12/24/2019 18:41:23 0.00, -75.27 -0.76, -78.70 390.13 80
10 12/25/2019 18:19:59 0.00, -75.29 0.27, -74.17 128.03 80
11 12/27/2019 06:44:26 0.00, -75.31 0.91, -79.43 469.44 80




NCC Satellite Simultaneous Nadir Overpasses (SNOs) Prediction Service
